Location: Unspecified
(0.0000°N, 0.0000°E)
Time: 07:04:07
(UTC+00:00)

Courier 1B Rocket - Visible Passes

Search period start: 25 October 2014 00:00
Search period end: 04 November 2014 00:00
Orbit: 921 x 1202 km, 28.3° (Epoch: 22 October)

Date Brightness Start Highest point End Pass type
(mag) Time Alt. Az. Time Alt. Az. Time Alt. Az.
25 Oct 6.8 19:42:32 10° SSW 19:46:16 18° SSE 19:46:16 18° SSE visible
26 Oct 7.0 18:43:28 10° S 18:45:34 12° SSE 18:47:41 10° SE visible
26 Oct 7.0 20:33:24 10° SW 20:35:31 21° SSW 20:35:31 21° SSW visible
27 Oct 6.2 19:33:09 10° SSW 19:38:25 27° SSE 19:38:25 27° SSE visible
28 Oct 6.7 18:33:15 10° SSW 18:37:21 18° SSE 18:41:21 11° ESE visible
28 Oct 6.5 20:24:37 10° SW 20:27:44 30° SW 20:27:44 30° SW visible
29 Oct 5.5 19:24:06 10° SW 19:30:03 42° SSE 19:30:42 41° SE visible
30 Oct 7.4 05:02:02 10° N 05:05:38 14° NNE 05:09:13 10° NE visible
30 Oct 6.2 18:23:49 10° SSW 18:29:02 27° SSE 18:33:41 13° E visible
30 Oct 6.0 20:16:07 10° WSW 20:20:04 41° WSW 20:20:04 41° WSW visible
31 Oct 5.0 19:15:19 10° SW 19:21:34 67° SSE 19:23:05 51° E visible
31 Oct 7.7 21:09:21 10° W 21:09:28 11° W 21:09:28 11° W visible
01 Nov 7.2 04:52:05 10° NNW 04:57:27 20° NNE 05:02:46 10° ENE visible
01 Nov 5.6 18:14:45 10° SW 18:20:37 42° SSE 18:26:06 12° E visible
01 Nov 5.9 20:07:56 10° WSW 20:12:30 42° WNW 20:12:30 42° WNW visible
02 Nov 7.4 03:52:39 11° N 03:55:49 14° NNE 03:59:34 10° NE visible
02 Nov 4.9 19:06:50 10° WSW 19:13:05 78° NNW 19:15:32 40° NE visible
03 Nov 6.8 04:42:35 10° NNW 04:49:04 29° NNE 04:55:33 10° E visible
03 Nov 5.0 18:05:58 10° SW 18:12:10 68° SSE 18:18:29 10° ENE visible
03 Nov 6.2 20:00:09 10° W 20:04:58 31° NW 20:04:58 31° NW visible
